Time,TemperatureF,DewpointF,PressureIn,WindDirection,WindDirectionDegrees,WindSpeedMPH,WindSpeedGustMPH,Humidity,HourlyPrecipIn,Conditions,Clouds,dailyrainin,SoftwareType,DateUTC
2013-01-13 00:00:00,54.7,54.7,30.06,SE,135,0.0,0.0,100,0.00,,,0.00,VWS V14.01,2013-01-13 05:00:00,
2013-01-13 00:02:00,54.7,54.7,30.06,SE,135,0.0,0.0,100,0.00,,,0.00,VWS V14.01,2013-01-13 05:02:00,
2013-01-13 00:03:00,54.7,54.7,30.06,SE,135,0.0,0.0,100,0.00,,,0.00,VWS V14.01,2013-01-13 05:03:00,
2013-01-13 00:04:00,54.7,54.7,30.06,SE,135,0.0,0.0,100,0.00,,,0.00,VWS V14.01,2013-01-13 05:04:00,
2013-01-13 00:09:00,54.9,54.9,30.06,SE,135,0.0,0.0,100,0.00,,,0.00,VWS V14.01,2013-01-13 05:09:00,
2013-01-13 00:14:00,54.9,54.9,30.06,SE,135,0.0,0.0,100,0.00,,,0.00,VWS V14.01,2013-01-13 05:14:00,
2013-01-13 00:19:00,54.9,54.9,30.06,SE,135,0.0,0.0,100,0.00,,,0.00,VWS V14.01,2013-01-13 05:19:00,
2013-01-13 00:24:00,54.9,54.9,30.06,SE,135,0.0,0.0,100,0.00,,,0.00,VWS V14.01,2013-01-13 05:24:00,
2013-01-13 00:29:00,54.7,54.7,30.06,SE,135,0.0,0.0,100,0.00,,,0.00,VWS V14.01,2013-01-13 05:29:00,
2013-01-13 00:34:00,54.5,54.5,30.06,SE,135,0.0,0.0,100,0.00,,,0.00,VWS V14.01,2013-01-13 05:34:00,
2013-01-13 00:39:00,54.3,54.3,30.06,SE,135,0.0,0.0,100,0.00,,,0.00,VWS V14.01,2013-01-13 05:39:00,
2013-01-13 00:44:00,54.7,54.7,30.06,SE,135,0.0,0.0,100,0.00,,,0.00,VWS V14.01,2013-01-13 05:44:00,
2013-01-13 00:49:00,54.7,54.7,30.06,SE,135,0.0,0.0,100,0.00,,,0.00,VWS V14.01,2013-01-13 05:49:00,
2013-01-13 00:54:00,54.7,54.7,30.06,SE,135,0.0,0.0,100,0.00,,,0.00,VWS V14.01,2013-01-13 05:54:00,
2013-01-13 00:59:00,54.7,54.7,30.06,SE,135,0.0,0.0,100,0.00,,,0.00,VWS V14.01,2013-01-13 05:59:00,
2013-01-13 01:04:00,54.5,54.5,30.06,SE,135,0.0,0.0,100,0.00,,,0.00,VWS V14.01,2013-01-13 06:04:00,
2013-01-13 01:09:00,54.5,54.5,30.06,SE,135,0.0,0.0,100,0.00,,,0.00,VWS V14.01,2013-01-13 06:09:00,
2013-01-13 01:14:00,54.3,54.3,30.06,SE,135,0.0,0.0,100,0.00,,,0.00,VWS V14.01,2013-01-13 06:14:00,
2013-01-13 01:19:00,54.5,54.5,30.06,SE,135,0.0,0.0,100,0.00,,,0.00,VWS V14.01,2013-01-13 06:19:00,
2013-01-13 01:24:00,54.9,54.9,30.06,SE,135,0.0,0.0,100,0.00,,,0.00,VWS V14.01,2013-01-13 06:24:00,
2013-01-13 01:29:00,54.7,54.7,30.06,SE,135,0.0,0.0,100,0.00,,,0.00,VWS V14.01,2013-01-13 06:29:00,
2013-01-13 01:34:00,54.7,54.7,30.06,SE,135,0.0,0.0,100,0.00,,,0.00,VWS V14.01,2013-01-13 06:34:00,
2013-01-13 01:39:00,54.5,54.5,30.06,SE,135,0.0,0.0,100,0.00,,,0.00,VWS V14.01,2013-01-13 06:39:00,
2013-01-13 01:44:00,54.0,54.0,30.06,SE,135,0.0,0.0,100,0.00,,,0.00,VWS V14.01,2013-01-13 06:44:00,
2013-01-13 01:49:00,53.6,53.6,30.06,SE,135,0.0,0.0,100,0.00,,,0.00,VWS V14.01,2013-01-13 06:49:00,
2013-01-13 01:54:00,53.2,53.2,30.06,SE,135,0.0,0.0,100,0.00,,,0.00,VWS V14.01,2013-01-13 06:54:00,
2013-01-13 01:59:00,53.1,53.1,30.06,SE,135,0.0,0.0,100,0.00,,,0.00,VWS V14.01,2013-01-13 06:59:00,
2013-01-13 02:04:00,53.4,53.4,30.06,SE,135,0.0,0.0,100,0.00,,,0.00,VWS V14.01,2013-01-13 07:04:00,
2013-01-13 02:09:00,53.4,53.4,30.06,SE,135,0.0,0.0,100,0.00,,,0.00,VWS V14.01,2013-01-13 07:09:00,
2013-01-13 02:14:00,53.2,53.2,30.06,SE,135,0.0,0.0,100,0.00,,,0.00,VWS V14.01,2013-01-13 07:14:00,
2013-01-13 02:19:00,53.1,53.1,30.06,SE,135,0.0,0.0,100,0.00,,,0.00,VWS V14.01,2013-01-13 07:19:00,
2013-01-13 02:24:00,53.4,53.4,30.06,SE,135,0.0,0.0,100,0.00,,,0.00,VWS V14.01,2013-01-13 07:24:00,
2013-01-13 02:29:00,53.4,53.4,30.06,SE,135,0.0,0.0,100,0.00,,,0.00,VWS V14.01,2013-01-13 07:29:00,
2013-01-13 02:34:00,53.1,53.1,30.06,SE,135,0.0,0.0,100,0.00,,,0.00,VWS V14.01,2013-01-13 07:34:00,
2013-01-13 02:39:00,52.5,52.5,30.06,SE,135,0.0,0.0,100,0.00,,,0.00,VWS V14.01,2013-01-13 07:39:00,
2013-01-13 02:44:00,52.2,52.2,30.06,SE,135,0.0,0.0,100,0.00,,,0.00,VWS V14.01,2013-01-13 07:44:00,
2013-01-13 02:49:00,51.8,51.8,30.06,SE,135,0.0,0.0,100,0.00,,,0.00,VWS V14.01,2013-01-13 07:49:00,
2013-01-13 02:54:00,51.8,51.8,30.06,SE,135,0.0,0.0,100,0.00,,,0.00,VWS V14.01,2013-01-13 07:54:00,
2013-01-13 02:59:00,51.8,51.8,30.06,SE,135,0.0,0.0,100,0.00,,,0.00,VWS V14.01,2013-01-13 07:59:00,
2013-01-13 03:04:00,51.8,51.8,30.06,SE,135,0.0,0.0,100,0.00,,,0.00,VWS V14.01,2013-01-13 08:04:00,
2013-01-13 03:09:00,51.6,51.6,30.06,SE,135,0.0,0.0,100,0.00,,,0.00,VWS V14.01,2013-01-13 08:09:00,
2013-01-13 03:14:00,51.6,51.6,30.06,SE,135,0.0,0.0,100,0.00,,,0.00,VWS V14.01,2013-01-13 08:14:00,
2013-01-13 03:19:00,51.3,51.3,30.06,SE,135,0.0,0.0,100,0.00,,,0.00,VWS V14.01,2013-01-13 08:19:00,
2013-01-13 03:24:00,51.1,51.1,30.06,SE,135,0.0,0.0,100,0.00,,,0.00,VWS V14.01,2013-01-13 08:24:00,
2013-01-13 03:29:00,50.9,50.9,30.06,SE,135,0.0,0.0,100,0.00,,,0.00,VWS V14.01,2013-01-13 08:29:00,
2013-01-13 03:34:00,50.9,50.9,30.06,SE,135,0.0,0.0,100,0.00,,,0.00,VWS V14.01,2013-01-13 08:34:00,
2013-01-13 03:39:00,50.9,50.9,30.06,SE,135,0.0,0.0,100,0.00,,,0.00,VWS V14.01,2013-01-13 08:39:00,
2013-01-13 03:44:00,50.9,50.9,30.06,SE,135,0.0,0.0,100,0.00,,,0.00,VWS V14.01,2013-01-13 08:44:00,
2013-01-13 03:49:00,50.5,50.5,30.06,SE,135,0.0,0.0,100,0.00,,,0.00,VWS V14.01,2013-01-13 08:49:00,
2013-01-13 03:55:00,50.5,50.5,30.06,SE,135,0.0,0.0,100,0.00,,,0.00,VWS V14.01,2013-01-13 08:55:00,
2013-01-13 04:00:00,50.4,50.4,30.03,SE,135,0.0,0.0,100,0.00,,,0.00,VWS V14.01,2013-01-13 09:00:00,
2013-01-13 04:05:00,50.2,50.2,30.03,SE,135,0.0,0.0,100,0.00,,,0.00,VWS V14.01,2013-01-13 09:05:00,
2013-01-13 04:10:00,50.0,50.0,30.03,SE,135,0.0,0.0,100,0.00,,,0.00,VWS V14.01,2013-01-13 09:10:00,
2013-01-13 04:15:00,50.0,50.0,30.03,SE,135,0.0,0.0,100,0.00,,,0.00,VWS V14.01,2013-01-13 09:15:00,
2013-01-13 04:20:00,50.2,50.2,30.03,SE,135,0.0,0.0,100,0.00,,,0.00,VWS V14.01,2013-01-13 09:20:00,
2013-01-13 04:25:00,51.1,51.1,30.03,SE,135,0.0,0.0,100,0.00,,,0.00,VWS V14.01,2013-01-13 09:25:00,
2013-01-13 04:30:00,50.9,50.9,30.03,SE,135,0.0,0.0,100,0.00,,,0.00,VWS V14.01,2013-01-13 09:30:00,
2013-01-13 04:35:00,51.3,51.3,30.03,SE,135,0.0,0.0,100,0.00,,,0.00,VWS V14.01,2013-01-13 09:35:00,
2013-01-13 04:40:00,51.6,51.6,30.03,SE,135,0.0,0.0,100,0.00,,,0.00,VWS V14.01,2013-01-13 09:40:00,
2013-01-13 04:45:00,51.6,51.6,30.03,SE,135,0.0,0.0,100,0.00,,,0.00,VWS V14.01,2013-01-13 09:45:00,
2013-01-13 04:50:00,51.4,51.4,30.03,SE,135,0.0,0.0,100,0.00,,,0.00,VWS V14.01,2013-01-13 09:50:00,
2013-01-13 04:55:00,51.4,51.4,30.03,SE,135,0.0,0.0,100,0.00,,,0.00,VWS V14.01,2013-01-13 09:55:00,
2013-01-13 05:00:00,51.6,51.6,30.03,SE,135,0.0,0.0,100,0.00,,,0.00,VWS V14.01,2013-01-13 10:00:00,
2013-01-13 05:05:00,51.8,51.8,30.03,SE,135,0.0,0.0,100,0.00,,,0.00,VWS V14.01,2013-01-13 10:05:00,
2013-01-13 05:10:00,52.0,52.0,30.03,SE,135,0.0,0.0,100,0.00,,,0.00,VWS V14.01,2013-01-13 10:10:00,
2013-01-13 05:15:00,52.0,52.0,30.03,SE,135,0.0,0.0,100,0.00,,,0.00,VWS V14.01,2013-01-13 10:15:00,
2013-01-13 05:20:00,52.3,52.3,30.03,SE,135,0.0,0.0,100,0.00,,,0.00,VWS V14.01,2013-01-13 10:20:00,
2013-01-13 05:25:00,52.7,52.7,30.06,SE,135,0.0,0.0,100,0.00,,,0.00,VWS V14.01,2013-01-13 10:25:00,
2013-01-13 05:30:00,52.9,52.9,30.06,SE,135,0.0,0.0,100,0.00,,,0.00,VWS V14.01,2013-01-13 10:30:00,
2013-01-13 05:35:00,53.2,53.2,30.06,SE,135,0.0,0.0,100,0.00,,,0.00,VWS V14.01,2013-01-13 10:35:00,
2013-01-13 05:40:00,53.2,53.2,30.03,SE,135,0.0,0.0,100,0.00,,,0.00,VWS V14.01,2013-01-13 10:40:00,
2013-01-13 05:45:00,53.4,53.4,30.03,SE,135,0.0,0.0,100,0.00,,,0.00,VWS V14.01,2013-01-13 10:45:00,
2013-01-13 05:50:00,53.4,53.4,30.03,SE,135,0.0,0.0,100,0.00,,,0.00,VWS V14.01,2013-01-13 10:50:00,
2013-01-13 05:55:00,53.4,53.4,30.03,SE,135,0.0,0.0,100,0.00,,,0.00,VWS V14.01,2013-01-13 10:55:00,
2013-01-13 06:00:00,53.4,53.4,30.03,SE,135,0.0,0.0,100,0.00,,,0.00,VWS V14.01,2013-01-13 11:00:00,
2013-01-13 06:05:00,53.8,53.8,30.03,SE,135,0.0,0.0,100,0.00,,,0.00,VWS V14.01,2013-01-13 11:05:00,
2013-01-13 06:10:00,54.0,54.0,30.03,SE,135,0.0,0.0,100,0.00,,,0.00,VWS V14.01,2013-01-13 11:10:00,
2013-01-13 06:15:00,54.0,54.0,30.03,SE,135,0.0,0.0,100,0.00,,,0.00,VWS V14.01,2013-01-13 11:15:00,
2013-01-13 06:20:00,54.0,54.0,30.03,SE,135,0.0,0.0,100,0.00,,,0.00,VWS V14.01,2013-01-13 11:20:00,
2013-01-13 06:25:00,54.0,54.0,30.03,SE,135,0.0,0.0,100,0.00,,,0.00,VWS V14.01,2013-01-13 11:25:00,
2013-01-13 06:30:00,54.0,54.0,30.03,SE,135,0.0,0.0,100,0.00,,,0.00,VWS V14.01,2013-01-13 11:30:00,
2013-01-13 06:35:00,54.7,54.7,30.03,SE,135,0.0,0.0,100,0.00,,,0.00,VWS V14.01,2013-01-13 11:35:00,
2013-01-13 06:40:00,55.0,55.0,30.03,SE,135,0.0,0.0,100,0.00,,,0.00,VWS V14.01,2013-01-13 11:40:00,
2013-01-13 06:45:00,55.0,55.0,30.03,SE,135,0.0,0.0,100,0.00,,,0.00,VWS V14.01,2013-01-13 11:45:00,
2013-01-13 06:50:00,54.9,54.9,30.03,SE,135,0.0,0.0,100,0.00,,,0.00,VWS V14.01,2013-01-13 11:50:00,
2013-01-13 06:55:00,54.7,54.7,30.06,SE,135,0.0,0.0,100,0.00,,,0.00,VWS V14.01,2013-01-13 11:55:00,
2013-01-13 07:00:00,54.7,54.7,30.06,SE,135,0.0,0.0,100,0.00,,,0.00,VWS V14.01,2013-01-13 12:00:00,
2013-01-13 07:05:00,55.2,55.2,30.06,SE,135,0.0,0.0,100,0.00,,,0.00,VWS V14.01,2013-01-13 12:05:00,
2013-01-13 07:10:00,55.2,55.2,30.03,SE,135,0.0,0.0,100,0.00,,,0.00,VWS V14.01,2013-01-13 12:10:00,
2013-01-13 07:15:00,55.2,55.2,30.03,SE,135,0.0,0.0,100,0.00,,,0.00,VWS V14.01,2013-01-13 12:15:00,
2013-01-13 07:20:00,54.9,54.9,30.03,SE,135,0.0,0.0,100,0.00,,,0.00,VWS V14.01,2013-01-13 12:20:00,
2013-01-13 07:25:00,54.7,54.7,30.06,SE,135,0.0,0.0,100,0.00,,,0.00,VWS V14.01,2013-01-13 12:25:00,
2013-01-13 07:30:00,54.9,54.9,30.06,SE,135,0.0,0.0,100,0.00,,,0.00,VWS V14.01,2013-01-13 12:30:00,
2013-01-13 07:35:00,54.9,54.9,30.06,SE,135,0.0,0.0,100,0.00,,,0.00,VWS V14.01,2013-01-13 12:35:00,
2013-01-13 07:40:00,55.4,55.4,30.06,SE,135,0.0,0.0,100,0.00,,,0.00,VWS V14.01,2013-01-13 12:40:00,
2013-01-13 07:45:00,55.9,55.9,30.06,SE,135,0.0,0.0,100,0.00,,,0.00,VWS V14.01,2013-01-13 12:45:00,
2013-01-13 07:50:00,55.8,55.8,30.06,SE,135,0.0,0.0,100,0.00,,,0.00,VWS V14.01,2013-01-13 12:50:00,
2013-01-13 07:55:00,55.9,55.9,30.06,SE,135,0.0,0.0,100,0.00,,,0.00,VWS V14.01,2013-01-13 12:55:00,
2013-01-13 08:00:00,56.3,56.3,30.06,SE,135,0.0,0.0,100,0.00,,,0.00,VWS V14.01,2013-01-13 13:00:00,
2013-01-13 08:06:00,56.3,56.3,30.06,SE,135,0.0,0.0,100,0.00,,,0.00,VWS V14.01,2013-01-13 13:06:00,
2013-01-13 08:11:00,56.3,56.3,30.09,SE,135,0.0,0.0,100,0.00,,,0.00,VWS V14.01,2013-01-13 13:11:00,
2013-01-13 08:16:00,56.3,56.3,30.09,SE,135,0.0,0.0,100,0.00,,,0.00,VWS V14.01,2013-01-13 13:16:00,
2013-01-13 08:21:00,56.7,56.7,30.09,SE,135,0.0,0.0,100,0.00,,,0.00,VWS V14.01,2013-01-13 13:21:00,
2013-01-13 08:26:00,56.7,56.7,30.06,SE,135,0.0,0.0,100,0.00,,,0.00,VWS V14.01,2013-01-13 13:26:00,
2013-01-13 08:31:00,56.3,56.3,30.06,SE,135,0.0,0.0,100,0.00,,,0.00,VWS V14.01,2013-01-13 13:31:00,
2013-01-13 08:36:00,56.7,56.7,30.06,SE,135,0.0,0.0,100,0.00,,,0.00,VWS V14.01,2013-01-13 13:36:00,
2013-01-13 08:41:00,56.7,56.7,30.09,SE,135,0.0,0.0,100,0.00,,,0.00,VWS V14.01,2013-01-13 13:41:00,
2013-01-13 08:46:00,56.7,56.7,30.09,SE,135,0.0,0.0,100,0.00,,,0.00,VWS V14.01,2013-01-13 13:46:00,
2013-01-13 08:51:00,56.8,56.8,30.09,SE,135,0.0,0.0,100,0.00,,,0.00,VWS V14.01,2013-01-13 13:51:00,
2013-01-13 08:56:00,56.7,56.7,30.09,SE,135,0.0,0.0,100,0.00,,,0.00,VWS V14.01,2013-01-13 13:56:00,
2013-01-13 09:01:00,56.8,56.8,30.09,SE,135,0.0,0.0,100,0.00,,,0.00,VWS V14.01,2013-01-13 14:01:00,
2013-01-13 09:06:00,57.4,57.4,30.09,SE,135,0.0,0.0,100,0.00,,,0.00,VWS V14.01,2013-01-13 14:06:00,
2013-01-13 09:11:00,58.1,58.1,30.09,SE,135,0.0,0.0,100,0.00,,,0.00,VWS V14.01,2013-01-13 14:11:00,
2013-01-13 09:16:00,58.3,58.3,30.09,SE,135,0.0,0.0,100,0.00,,,0.00,VWS V14.01,2013-01-13 14:16:00,
2013-01-13 09:21:00,58.5,58.5,30.09,SE,135,0.0,0.0,100,0.00,,CLR,0.00,VWS V14.01,2013-01-13 14:21:00,
2013-01-13 09:26:00,58.6,58.6,30.09,SE,135,0.0,0.0,100,0.00,,CLR,0.00,VWS V14.01,2013-01-13 14:26:00,
2013-01-13 09:31:00,58.8,58.8,30.09,SE,135,0.0,0.0,100,0.00,,CLR,0.00,VWS V14.01,2013-01-13 14:31:00,
2013-01-13 09:36:00,59.0,59.0,30.09,SE,135,0.0,0.0,100,0.00,,CLR,0.00,VWS V14.01,2013-01-13 14:36:00,
2013-01-13 09:41:00,59.5,59.5,30.09,SE,135,0.0,0.0,100,0.00,,CLR,0.00,VWS V14.01,2013-01-13 14:41:00,
2013-01-13 09:46:00,59.9,59.9,30.09,SE,135,0.0,0.0,100,0.00,,CLR,0.00,VWS V14.01,2013-01-13 14:46:00,
2013-01-13 09:51:00,60.6,60.6,30.09,SE,135,0.0,0.0,100,0.00,,CLR,0.00,VWS V14.01,2013-01-13 14:51:00,
2013-01-13 09:56:00,61.0,61.0,30.09,SE,135,0.0,0.0,100,0.00,,CLR,0.00,VWS V14.01,2013-01-13 14:56:00,
2013-01-13 10:01:00,61.3,61.3,30.09,SE,135,0.0,0.0,100,0.00,,CLR,0.00,VWS V14.01,2013-01-13 15:01:00,
2013-01-13 10:06:00,61.3,61.3,30.09,SE,135,0.0,0.0,100,0.00,,CLR,0.00,VWS V14.01,2013-01-13 15:06:00,
2013-01-13 10:11:00,61.9,61.9,30.09,SE,135,0.0,0.0,100,0.00,,CLR,0.00,VWS V14.01,2013-01-13 15:11:00,
2013-01-13 10:17:00,62.8,62.8,30.09,SE,135,0.0,0.0,100,0.00,,CLR,0.00,VWS V14.01,2013-01-13 15:17:00,
2013-01-13 10:22:00,63.5,63.5,30.09,SE,135,0.0,0.0,100,0.00,,CLR,0.00,VWS V14.01,2013-01-13 15:22:00,
2013-01-13 10:27:00,63.7,63.7,30.09,SE,135,0.0,0.0,100,0.00,,CLR,0.00,VWS V14.01,2013-01-13 15:27:00,
2013-01-13 10:32:00,64.4,64.4,30.09,SE,135,0.0,0.0,100,0.00,,CLR,0.00,VWS V14.01,2013-01-13 15:32:00,
2013-01-13 10:37:00,65.5,65.5,30.09,SE,135,0.0,0.0,100,0.00,,CLR,0.00,VWS V14.01,2013-01-13 15:37:00,
2013-01-13 10:42:00,66.4,66.4,30.09,SE,135,0.0,0.0,100,0.00,,CLR,0.00,VWS V14.01,2013-01-13 15:42:00,
2013-01-13 10:47:00,67.3,67.3,30.09,SE,135,0.0,2.2,100,0.00,,CLR,0.00,VWS V14.01,2013-01-13 15:47:00,
2013-01-13 10:52:00,67.6,67.6,30.09,SE,135,0.0,0.0,100,0.00,,CLR,0.00,VWS V14.01,2013-01-13 15:52:00,
2013-01-13 10:57:00,67.6,67.6,30.06,SE,135,0.0,2.2,100,0.00,,CLR,0.00,VWS V14.01,2013-01-13 15:57:00,
2013-01-13 11:02:00,67.6,67.6,30.06,SSW,202,0.0,4.0,100,0.00,,CLR,0.00,VWS V14.01,2013-01-13 16:02:00,
2013-01-13 11:07:00,68.5,68.0,30.06,SSW,202,0.0,0.0,98,0.00,,CLR,0.00,VWS V14.01,2013-01-13 16:07:00,
2013-01-13 11:12:00,68.4,66.9,30.06,SSW,202,0.0,3.1,95,0.00,,CLR,0.00,VWS V14.01,2013-01-13 16:12:00,
2013-01-13 11:17:00,68.9,64.9,30.06,SSW,202,5.8,5.8,87,0.00,,CLR,0.00,VWS V14.01,2013-01-13 16:17:00,
2013-01-13 11:22:00,69.6,63.2,30.06,South,180,4.9,4.9,80,0.00,,CLR,0.00,VWS V14.01,2013-01-13 16:22:00,
2013-01-13 11:27:00,70.2,60.7,30.06,South,180,4.0,4.0,72,0.00,,CLR,0.00,VWS V14.01,2013-01-13 16:27:00,
2013-01-13 11:32:00,69.3,58.7,30.06,SE,135,4.0,5.4,69,0.00,,CLR,0.00,VWS V14.01,2013-01-13 16:32:00,
2013-01-13 11:37:00,70.2,59.1,30.06,South,180,4.0,4.0,68,0.00,,CLR,0.00,VWS V14.01,2013-01-13 16:37:00,
2013-01-13 11:42:00,69.6,57.3,30.03,South,180,3.6,3.6,65,0.00,,SCT038,0.00,VWS V14.01,2013-01-13 16:42:00,
2013-01-13 11:47:00,70.3,56.7,30.03,SSW,202,6.3,6.3,62,0.00,,SCT038,0.00,VWS V14.01,2013-01-13 16:47:00,
2013-01-13 11:52:00,71.2,57.1,30.03,SSW,202,3.1,3.1,61,0.00,,SCT038,0.00,VWS V14.01,2013-01-13 16:52:00,
2013-01-13 11:57:00,71.1,55.1,30.03,SSW,202,2.7,5.4,57,0.00,,SCT038,0.00,VWS V14.01,2013-01-13 16:57:00,
2013-01-13 12:02:00,72.5,55.4,30.03,SSW,202,6.3,6.3,55,0.00,,SCT032,0.00,VWS V14.01,2013-01-13 17:02:00,
2013-01-13 12:07:00,72.1,53.0,30.03,SW,225,4.0,4.0,51,0.00,,SCT032,0.00,VWS V14.01,2013-01-13 17:07:00,
2013-01-13 12:12:00,71.4,52.4,30.03,SSW,202,3.1,8.7,51,0.00,,SCT032,0.00,VWS V14.01,2013-01-13 17:12:00,
2013-01-13 12:17:00,72.0,52.3,30.03,WSW,248,3.6,3.6,50,0.00,,SCT032,0.00,VWS V14.01,2013-01-13 17:17:00,
2013-01-13 12:22:00,71.4,51.3,30.03,SSW,202,5.4,7.6,49,0.00,,SCT032,0.00,VWS V14.01,2013-01-13 17:22:00,
2013-01-13 12:27:00,72.1,52.5,30.03,WSW,248,3.6,6.3,50,0.00,,SCT032,0.00,VWS V14.01,2013-01-13 17:27:00,
2013-01-13 12:32:00,72.0,51.8,30.03,SSW,202,3.6,5.4,49,0.00,,SCT032,0.00,VWS V14.01,2013-01-13 17:32:00,
2013-01-13 12:37:00,72.1,51.9,30.03,WSW,248,4.9,4.9,49,0.00,,SCT032,0.00,VWS V14.01,2013-01-13 17:37:00,
2013-01-13 12:42:00,72.1,52.5,30.03,SW,225,3.6,3.6,50,0.00,,SCT032,0.00,VWS V14.01,2013-01-13 17:42:00,
2013-01-13 12:47:00,71.2,52.2,30.03,SW,225,3.1,4.9,51,0.00,,SCT032,0.00,VWS V14.01,2013-01-13 17:47:00,
2013-01-13 12:52:00,71.2,52.2,30.03,SSW,202,7.2,8.3,51,0.00,,SCT032,0.00,VWS V14.01,2013-01-13 17:52:00,
2013-01-13 12:57:00,70.5,52.6,30.00,SSW,202,2.7,7.6,53,0.00,,SCT032,0.00,VWS V14.01,2013-01-13 17:57:00,
2013-01-13 13:02:00,70.3,51.9,30.00,SSW,202,5.8,8.3,52,0.00,,CLR,0.00,VWS V14.01,2013-01-13 18:02:00,
2013-01-13 13:07:00,70.3,52.4,30.00,ESE,112,5.4,5.4,53,0.00,,CLR,0.00,VWS V14.01,2013-01-13 18:07:00,
2013-01-13 13:12:00,70.7,52.8,30.00,SW,225,6.7,6.7,53,0.00,,CLR,0.00,VWS V14.01,2013-01-13 18:12:00,
2013-01-13 13:17:00,71.1,53.1,30.00,SSW,202,4.9,5.8,53,0.00,,CLR,0.00,VWS V14.01,2013-01-13 18:17:00,
2013-01-13 13:22:00,71.8,52.2,30.00,WSW,248,3.6,5.4,50,0.00,,CLR,0.00,VWS V14.01,2013-01-13 18:22:00,
2013-01-13 13:27:00,71.4,52.4,30.00,SSW,202,2.7,4.5,51,0.00,,CLR,0.00,VWS V14.01,2013-01-13 18:27:00,
2013-01-13 13:32:00,72.7,52.4,30.00,South,180,4.0,4.0,49,0.00,,CLR,0.00,VWS V14.01,2013-01-13 18:32:00,
2013-01-13 13:37:00,72.5,51.7,30.00,SW,225,4.9,7.6,48,0.00,,CLR,0.00,VWS V14.01,2013-01-13 18:37:00,
2013-01-13 13:42:00,71.8,51.6,30.00,SW,225,5.8,8.1,49,0.00,,CLR,0.00,VWS V14.01,2013-01-13 18:42:00,
2013-01-13 13:47:00,72.3,51.5,30.00,South,180,6.3,7.6,48,0.00,,CLR,0.00,VWS V14.01,2013-01-13 18:47:00,
2013-01-13 13:52:00,72.3,52.1,30.00,SSW,202,3.1,3.1,49,0.00,,CLR,0.00,VWS V14.01,2013-01-13 18:52:00,
2013-01-13 13:57:00,72.7,51.3,30.00,SSW,202,5.4,10.5,47,0.00,,CLR,0.00,VWS V14.01,2013-01-13 18:57:00,
2013-01-13 14:03:00,72.3,51.5,30.00,SSW,202,10.5,10.5,48,0.00,,CLR,0.00,VWS V14.01,2013-01-13 19:03:00,
2013-01-13 14:08:00,72.5,51.7,30.00,SSW,202,4.9,7.2,48,0.00,,CLR,0.00,VWS V14.01,2013-01-13 19:08:00,
2013-01-13 14:13:00,72.9,52.0,30.00,SSW,202,2.7,4.9,48,0.00,,CLR,0.00,VWS V14.01,2013-01-13 19:13:00,
2013-01-13 14:18:00,72.5,52.3,30.00,SSE,158,4.9,4.9,49,0.00,,CLR,0.00,VWS V14.01,2013-01-13 19:18:00,
2013-01-13 14:23:00,71.6,52.5,30.00,SSW,202,4.0,4.0,51,0.00,,CLR,0.00,VWS V14.01,2013-01-13 19:23:00,
2013-01-13 14:28:00,71.1,53.1,30.00,SW,225,2.7,2.7,53,0.00,,CLR,0.00,VWS V14.01,2013-01-13 19:28:00,
2013-01-13 14:33:00,70.5,53.1,30.00,WSW,248,5.8,5.8,54,0.00,,CLR,0.00,VWS V14.01,2013-01-13 19:33:00,
2013-01-13 14:38:00,70.7,53.8,30.00,SSW,202,5.8,8.1,55,0.00,,CLR,0.00,VWS V14.01,2013-01-13 19:38:00,
2013-01-13 14:43:00,71.6,54.1,30.00,SSW,202,3.6,3.6,54,0.00,,CLR,0.00,VWS V14.01,2013-01-13 19:43:00,
2013-01-13 14:48:00,72.5,53.4,30.00,SSW,202,4.0,4.0,51,0.00,,CLR,0.00,VWS V14.01,2013-01-13 19:48:00,
2013-01-13 14:53:00,71.2,52.7,30.00,SW,225,7.6,7.6,52,0.00,,CLR,0.00,VWS V14.01,2013-01-13 19:53:00,
2013-01-13 14:58:00,71.8,53.2,30.00,WSW,248,3.1,3.1,52,0.00,,CLR,0.00,VWS V14.01,2013-01-13 19:58:00,
2013-01-13 15:03:00,71.1,52.6,30.00,SSW,202,4.0,8.7,52,0.00,,CLR,0.00,VWS V14.01,2013-01-13 20:03:00,
2013-01-13 15:08:00,71.4,52.9,30.00,SSE,158,4.0,4.9,52,0.00,,CLR,0.00,VWS V14.01,2013-01-13 20:08:00,
2013-01-13 15:13:00,71.6,53.1,30.00,SSW,202,4.9,7.6,52,0.00,,CLR,0.00,VWS V14.01,2013-01-13 20:13:00,
2013-01-13 15:18:00,70.7,53.3,30.00,SSW,202,4.0,4.0,54,0.00,,CLR,0.00,VWS V14.01,2013-01-13 20:18:00,
2013-01-13 15:23:00,70.7,53.3,30.00,SSW,202,2.7,4.0,54,0.00,,CLR,0.00,VWS V14.01,2013-01-13 20:23:00,
2013-01-13 15:28:00,70.9,53.9,30.03,SSW,202,3.6,4.0,55,0.00,,CLR,0.00,VWS V14.01,2013-01-13 20:28:00,
2013-01-13 15:33:00,70.9,53.4,30.03,WSW,248,2.7,3.6,54,0.00,,CLR,0.00,VWS V14.01,2013-01-13 20:33:00,
2013-01-13 15:38:00,71.2,53.2,30.03,SSW,202,3.6,3.6,53,0.00,,CLR,0.00,VWS V14.01,2013-01-13 20:38:00,
2013-01-13 15:43:00,70.3,52.9,30.00,SSW,202,4.9,4.9,54,0.00,,CLR,0.00,VWS V14.01,2013-01-13 20:43:00,
2013-01-13 15:48:00,69.8,52.9,30.00,WSW,248,8.1,8.1,55,0.00,,CLR,0.00,VWS V14.01,2013-01-13 20:48:00,
2013-01-13 15:53:00,69.8,52.9,30.00,SSW,202,5.8,8.1,55,0.00,,CLR,0.00,VWS V14.01,2013-01-13 20:53:00,
2013-01-13 15:58:00,69.6,53.7,30.03,SW,225,6.3,6.3,57,0.00,,CLR,0.00,VWS V14.01,2013-01-13 20:58:00,
2013-01-13 16:03:00,69.3,53.9,30.03,SSW,202,9.6,9.6,58,0.00,,CLR,0.00,VWS V14.01,2013-01-13 21:03:00,
2013-01-13 16:08:00,69.1,54.2,30.03,WSW,248,3.6,4.0,59,0.00,,CLR,0.00,VWS V14.01,2013-01-13 21:08:00,
2013-01-13 16:13:00,68.9,54.0,30.03,SW,225,4.0,4.0,59,0.00,,CLR,0.00,VWS V14.01,2013-01-13 21:13:00,
2013-01-13 16:18:00,68.7,54.3,30.03,SSW,202,4.0,8.3,60,0.00,,CLR,0.00,VWS V14.01,2013-01-13 21:18:00,
2013-01-13 16:23:00,68.5,54.1,30.03,SSW,202,4.9,4.9,60,0.00,,CLR,0.00,VWS V14.01,2013-01-13 21:23:00,
2013-01-13 16:28:00,68.4,54.4,30.03,WSW,248,4.9,8.1,61,0.00,,CLR,0.00,VWS V14.01,2013-01-13 21:28:00,
2013-01-13 16:34:00,68.2,54.7,30.03,SW,225,5.8,10.1,62,0.00,,CLR,0.00,VWS V14.01,2013-01-13 21:34:00,
2013-01-13 16:39:00,68.0,55.0,30.03,SSW,202,8.3,8.3,63,0.00,,CLR,0.00,VWS V14.01,2013-01-13 21:39:00,
2013-01-13 16:44:00,67.8,55.2,30.03,SSW,202,2.7,2.7,64,0.00,,SCT030,0.00,VWS V14.01,2013-01-13 21:44:00,
2013-01-13 16:49:00,67.6,55.5,30.03,SSW,202,2.7,4.0,65,0.00,,SCT030,0.00,VWS V14.01,2013-01-13 21:49:00,
2013-01-13 16:54:00,67.5,56.1,30.03,SSW,202,6.3,6.3,67,0.00,,SCT030,0.00,VWS V14.01,2013-01-13 21:54:00,
2013-01-13 16:59:00,67.1,56.6,30.03,SSW,202,3.1,3.1,69,0.00,,SCT030,0.00,VWS V14.01,2013-01-13 21:59:00,
2013-01-13 17:04:00,66.9,56.8,30.03,South,180,4.0,4.0,70,0.00,,SCT030,0.00,VWS V14.01,2013-01-13 22:04:00,
2013-01-13 17:09:00,66.7,57.4,30.03,South,180,3.6,4.9,72,0.00,,SCT030,0.00,VWS V14.01,2013-01-13 22:09:00,
2013-01-13 17:14:00,66.6,57.7,30.06,South,180,3.6,4.0,73,0.00,,SCT030,0.00,VWS V14.01,2013-01-13 22:14:00,
2013-01-13 17:19:00,66.4,57.8,30.06,SSW,202,2.7,7.6,74,0.00,,SCT030,0.00,VWS V14.01,2013-01-13 22:19:00,
2013-01-13 17:24:00,66.2,57.7,30.06,SSW,202,2.7,3.1,74,0.00,,CLR,0.00,VWS V14.01,2013-01-13 22:24:00,
2013-01-13 17:29:00,65.8,57.7,30.06,South,180,2.7,2.7,75,0.00,,CLR,0.00,VWS V14.01,2013-01-13 22:29:00,
2013-01-13 17:34:00,65.7,57.9,30.06,South,180,2.2,3.1,76,0.00,,CLR,0.00,VWS V14.01,2013-01-13 22:34:00,
2013-01-13 17:39:00,65.7,57.9,30.06,SSW,202,3.6,3.6,76,0.00,,CLR,0.00,VWS V14.01,2013-01-13 22:39:00,
2013-01-13 17:44:00,65.5,57.4,30.03,South,180,4.0,5.4,75,0.00,,CLR,0.00,VWS V14.01,2013-01-13 22:44:00,
2013-01-13 17:49:00,65.1,57.0,30.03,SSE,158,4.0,4.0,75,0.00,,CLR,0.00,VWS V14.01,2013-01-13 22:49:00,
2013-01-13 17:54:00,65.1,57.0,30.03,SSW,202,2.2,2.2,75,0.00,,CLR,0.00,VWS V14.01,2013-01-13 22:54:00,
2013-01-13 17:59:00,64.9,56.8,30.03,SSW,202,2.7,3.1,75,0.00,,CLR,0.00,VWS V14.01,2013-01-13 22:59:00,
2013-01-13 18:04:00,64.9,56.5,30.03,South,180,2.2,2.2,74,0.00,,CLR,0.00,VWS V14.01,2013-01-13 23:04:00,
2013-01-13 18:09:00,64.9,56.5,30.03,SSW,202,4.9,4.9,74,0.00,,CLR,0.00,VWS V14.01,2013-01-13 23:09:00,
2013-01-13 18:14:00,64.8,55.9,30.03,SSW,202,2.7,3.6,73,0.00,,CLR,0.00,VWS V14.01,2013-01-13 23:14:00,
2013-01-13 18:19:00,64.9,55.7,30.03,SSE,158,5.8,5.8,72,0.00,,CLR,0.00,VWS V14.01,2013-01-13 23:19:00,
2013-01-13 18:24:00,64.8,55.5,30.03,SSE,158,3.1,4.0,72,0.00,,CLR,0.00,VWS V14.01,2013-01-13 23:24:00,
2013-01-13 18:29:00,64.8,55.2,30.03,SSW,202,4.5,4.5,71,0.00,,CLR,0.00,VWS V14.01,2013-01-13 23:29:00,
2013-01-13 18:34:00,64.8,55.2,30.03,South,180,2.2,2.7,71,0.00,,CLR,0.00,VWS V14.01,2013-01-13 23:34:00,
2013-01-13 18:39:00,64.6,55.0,30.03,SSW,202,0.0,2.7,71,0.00,,CLR,0.00,VWS V14.01,2013-01-13 23:39:00,
2013-01-13 18:44:00,63.9,54.7,30.06,SSW,202,2.2,2.2,72,0.00,,CLR,0.00,VWS V14.01,2013-01-13 23:44:00,
2013-01-13 18:49:00,63.7,54.9,30.06,SSW,202,0.0,2.2,73,0.00,,CLR,0.00,VWS V14.01,2013-01-13 23:49:00,
2013-01-13 18:55:00,63.3,54.9,30.06,SSW,202,2.7,2.7,74,0.00,,CLR,0.00,VWS V14.01,2013-01-13 23:55:00,
2013-01-13 19:00:00,63.1,54.7,30.03,SSW,202,0.0,0.0,74,0.00,,CLR,0.00,VWS V14.01,2013-01-14 00:00:00,
2013-01-13 19:05:00,63.0,54.9,30.03,SSW,202,0.0,2.2,75,0.00,,CLR,0.00,VWS V14.01,2013-01-14 00:05:00,
2013-01-13 19:10:00,62.8,54.8,30.03,SSW,202,0.0,0.0,75,0.00,,CLR,0.00,VWS V14.01,2013-01-14 00:10:00,
2013-01-13 19:15:00,62.6,54.6,30.06,SSW,202,2.2,2.2,75,0.00,,CLR,0.00,VWS V14.01,2013-01-14 00:15:00,
2013-01-13 19:20:00,62.6,54.9,30.06,SSW,202,0.0,0.0,76,0.00,,CLR,0.00,VWS V14.01,2013-01-14 00:20:00,
2013-01-13 19:25:00,62.6,55.3,30.06,SSW,202,2.2,2.7,77,0.00,,CLR,0.00,VWS V14.01,2013-01-14 00:25:00,
2013-01-13 19:30:00,62.2,55.3,30.03,SSW,202,0.0,0.0,78,0.00,,CLR,0.00,VWS V14.01,2013-01-14 00:30:00,
2013-01-13 19:35:00,62.1,55.5,30.03,SSW,202,0.0,0.0,79,0.00,,CLR,0.00,VWS V14.01,2013-01-14 00:35:00,
2013-01-13 19:40:00,62.2,55.7,30.03,SSW,202,3.1,3.1,79,0.00,,CLR,0.00,VWS V14.01,2013-01-14 00:40:00,
2013-01-13 19:45:00,62.6,55.7,30.03,SSW,202,2.7,2.7,78,0.00,,CLR,0.00,VWS V14.01,2013-01-14 00:45:00,
2013-01-13 19:50:00,62.4,55.5,30.03,SSW,202,3.1,3.1,78,0.00,,CLR,0.00,VWS V14.01,2013-01-14 00:50:00,
2013-01-13 19:55:00,62.4,55.5,30.03,SSW,202,2.2,2.2,78,0.00,,CLR,0.00,VWS V14.01,2013-01-14 00:55:00,
2013-01-13 20:00:00,62.4,55.8,30.03,SSW,202,0.0,0.0,79,0.00,,CLR,0.00,VWS V14.01,2013-01-14 01:00:00,
2013-01-13 20:05:00,62.2,56.0,30.03,SSW,202,0.0,2.2,80,0.00,,CLR,0.00,VWS V14.01,2013-01-14 01:05:00,
2013-01-13 20:10:00,62.2,56.0,30.03,SSW,202,0.0,2.2,80,0.00,,CLR,0.00,VWS V14.01,2013-01-14 01:10:00,
2013-01-13 20:15:00,62.2,56.3,30.03,SSW,202,0.0,0.0,81,0.00,,CLR,0.00,VWS V14.01,2013-01-14 01:15:00,
2013-01-13 20:20:00,62.1,56.2,30.03,SSW,202,0.0,0.0,81,0.00,,CLR,0.00,VWS V14.01,2013-01-14 01:20:00,
2013-01-13 20:25:00,61.9,56.3,30.03,SSW,202,0.0,0.0,82,0.00,,CLR,0.00,VWS V14.01,2013-01-14 01:25:00,
2013-01-13 20:30:00,61.3,55.8,30.03,SSW,202,0.0,0.0,82,0.00,,CLR,0.00,VWS V14.01,2013-01-14 01:30:00,
2013-01-13 20:35:00,60.8,55.6,30.03,SSW,202,0.0,0.0,83,0.00,,CLR,0.00,VWS V14.01,2013-01-14 01:35:00,
2013-01-13 20:40:00,60.4,55.6,30.03,SSW,202,0.0,0.0,84,0.00,,CLR,0.00,VWS V14.01,2013-01-14 01:40:00,
2013-01-13 20:45:00,59.9,55.4,30.03,SSW,202,0.0,0.0,85,0.00,,CLR,0.00,VWS V14.01,2013-01-14 01:45:00,
2013-01-13 20:50:00,59.7,56.2,30.03,SSW,202,0.0,0.0,88,0.00,,CLR,0.00,VWS V14.01,2013-01-14 01:50:00,
2013-01-13 20:55:00,59.7,56.8,30.03,SSW,202,0.0,0.0,90,0.00,,CLR,0.00,VWS V14.01,2013-01-14 01:55:00,
2013-01-13 21:00:00,59.4,57.0,30.03,SSW,202,0.0,0.0,92,0.00,,CLR,0.00,VWS V14.01,2013-01-14 02:00:00,
2013-01-13 21:05:00,59.2,57.2,30.03,SSW,202,0.0,0.0,93,0.00,,CLR,0.00,VWS V14.01,2013-01-14 02:05:00,
2013-01-13 21:10:00,59.5,57.8,30.03,SSW,202,0.0,0.0,94,0.00,,CLR,0.00,VWS V14.01,2013-01-14 02:10:00,
2013-01-13 21:15:00,59.7,58.0,30.03,SSW,202,0.0,0.0,94,0.00,,CLR,0.00,VWS V14.01,2013-01-14 02:15:00,
2013-01-13 21:20:00,59.7,58.0,30.03,SSW,202,0.0,0.0,94,0.00,,SCT038,0.00,VWS V14.01,2013-01-14 02:20:00,
2013-01-13 21:25:00,59.2,57.5,30.03,SSW,202,0.0,0.0,94,0.00,,SCT038,0.00,VWS V14.01,2013-01-14 02:25:00,
2013-01-13 21:30:00,59.2,57.8,30.03,SSW,202,0.0,0.0,95,0.00,,SCT038,0.00,VWS V14.01,2013-01-14 02:30:00,
2013-01-13 21:35:00,59.0,57.6,30.03,SSW,202,0.0,0.0,95,0.00,,SCT038,0.00,VWS V14.01,2013-01-14 02:35:00,
2013-01-13 21:40:00,58.6,57.2,30.03,SSW,202,0.0,0.0,95,0.00,,SCT040,0.00,VWS V14.01,2013-01-14 02:40:00,
2013-01-13 21:45:00,58.6,57.5,30.03,SSW,202,0.0,0.0,96,0.00,,SCT040,0.00,VWS V14.01,2013-01-14 02:45:00,
2013-01-13 21:50:00,59.2,58.0,30.03,SSW,202,0.0,0.0,96,0.00,,SCT040,0.00,VWS V14.01,2013-01-14 02:50:00,
2013-01-13 21:55:00,59.0,57.9,30.03,SSW,202,0.0,0.0,96,0.00,,SCT040,0.00,VWS V14.01,2013-01-14 02:55:00,
2013-01-13 22:00:00,58.6,57.8,30.03,SSW,202,0.0,0.0,97,0.00,,SCT040,0.00,VWS V14.01,2013-01-14 03:00:00,
2013-01-13 22:05:00,58.3,57.4,30.03,SSW,202,0.0,0.0,97,0.00,,SCT075,0.00,VWS V14.01,2013-01-14 03:05:00,
2013-01-13 22:10:00,57.9,57.1,30.06,SSW,202,0.0,0.0,97,0.00,,SCT075,0.00,VWS V14.01,2013-01-14 03:10:00,
2013-01-13 22:15:00,57.6,56.7,30.06,SSW,202,0.0,0.0,97,0.00,,SCT075,0.00,VWS V14.01,2013-01-14 03:15:00,
2013-01-13 22:20:00,57.2,56.4,30.06,SSW,202,0.0,0.0,97,0.00,,,0.00,VWS V14.01,2013-01-14 03:20:00,
2013-01-13 22:25:00,56.8,56.3,30.03,SSW,202,0.0,0.0,98,0.00,,,0.00,VWS V14.01,2013-01-14 03:25:00,
2013-01-13 22:30:00,56.7,56.1,30.03,SSW,202,0.0,0.0,98,0.00,,,0.00,VWS V14.01,2013-01-14 03:30:00,
2013-01-13 22:35:00,56.5,55.9,30.03,SSW,202,0.0,0.0,98,0.00,,,0.00,VWS V14.01,2013-01-14 03:35:00,
2013-01-13 22:40:00,56.3,56.0,30.06,SSW,202,0.0,0.0,99,0.00,,,0.00,VWS V14.01,2013-01-14 03:40:00,
2013-01-13 22:45:00,56.1,55.8,30.06,SSW,202,0.0,0.0,99,0.00,,,0.00,VWS V14.01,2013-01-14 03:45:00,
2013-01-13 22:50:00,55.8,55.5,30.06,SSW,202,0.0,0.0,99,0.00,,,0.00,VWS V14.01,2013-01-14 03:50:00,
2013-01-13 22:55:00,55.6,55.3,30.06,SSW,202,0.0,0.0,99,0.00,,,0.00,VWS V14.01,2013-01-14 03:55:00,
2013-01-13 23:00:00,55.9,55.9,30.06,SSW,202,0.0,0.0,100,0.00,,,0.00,VWS V14.01,2013-01-14 04:00:00,
2013-01-13 23:05:00,55.8,55.8,30.06,SSW,202,0.0,0.0,100,0.00,,,0.00,VWS V14.01,2013-01-14 04:05:00,
2013-01-13 23:10:00,55.6,55.6,30.06,SSW,202,0.0,0.0,100,0.00,,,0.00,VWS V14.01,2013-01-14 04:10:00,
2013-01-13 23:15:00,55.9,55.9,30.06,SSW,202,0.0,0.0,100,0.00,,,0.00,VWS V14.01,2013-01-14 04:15:00,
2013-01-13 23:20:00,56.1,56.1,30.06,SSW,202,0.0,0.0,100,0.00,,,0.00,VWS V14.01,2013-01-14 04:20:00,
2013-01-13 23:25:00,56.1,56.1,30.06,SSW,202,0.0,0.0,100,0.00,,,0.00,VWS V14.01,2013-01-14 04:25:00,
2013-01-13 23:30:00,55.9,55.9,30.06,SSW,202,0.0,0.0,100,0.00,,,0.00,VWS V14.01,2013-01-14 04:30:00,
2013-01-13 23:35:00,55.8,55.8,30.06,SSW,202,0.0,0.0,100,0.00,,,0.00,VWS V14.01,2013-01-14 04:35:00,
2013-01-13 23:40:00,55.2,55.2,30.03,SSW,202,0.0,0.0,100,0.00,,,0.00,VWS V14.01,2013-01-14 04:40:00,
2013-01-13 23:45:00,54.9,54.9,30.03,SSW,202,0.0,0.0,100,0.00,,,0.00,VWS V14.01,2013-01-14 04:45:00,
2013-01-13 23:50:00,54.9,54.9,30.03,SSW,202,0.0,0.0,100,0.00,,,0.00,VWS V14.01,2013-01-14 04:50:00,
2013-01-13 23:55:00,54.9,54.9,30.03,SSW,202,0.0,0.0,100,0.00,,,0.00,VWS V14.01,2013-01-14 04:55:00,